Back to catalog

FENGYUN 1C DEB

AlivePO
NORAD 29955·DEBRIS·🇨🇳 China

Launched May 10, 1999 from Taiyuan Satellite Launch Center

Loading…

Next Passes (next 24 hours)

TLE

FreshSource: Space-Track

Epoch: Sep 13, 2026, 18:52 UTC

1 29955U 99025KD  26256.78650139  .00002653  00000-0  85162-3 0  9996
2 29955  99.2719   4.6369 0008248 168.2036 345.0164 14.40355849 20159

Track FENGYUN 1C DEB in real time with AllMySat

Download on the App Store